RH
5 8 10 10 20 18 11 11 18 21 18 17 17 18 23 25 30 22 18 17 17 19 23 33 29 29 26 24 24 24 23 24 28 43 44 48 54 53 69 82 94 70 71 61 51 45 58 28 30
5 6 10 15 16 11 8 12 13 18 22 18 18 18 19 24 19 18 17 17 19 22 21 27 27 27 26 24 22 24 25 25 31 42 52 56 57 66 87 97 96 85 67 67 58 56 27 25 36
5 6 17 19 16 11 9 11 12 19 18 20 22 20 28 29 19 19 18 18 20 26 26 27 28 28 24 21 18 22 26 29 35 44 56 63 72 88 89 98 96 99 74 63 69 61 53 20 38
6 7 10 18 12 14 13 13 22 21 20 20 20 26 20 19 19 20 19 19 24 29 30 29 28 24 22 19 22 21 28 32 38 52 67 83 90 92 91 93 94 90 94 72 74 69 59 28 26
6 19 18 18 12 11 15 17 26 26 22 23 22 23 24 19 19 20 20 20 25 29 27 28 28 23 21 20 25 25 25 36 40 47 63 71 72 75 79 81 82 90 97 98 86 82 60 38 27
14 16 16 12 12 14 14 14 23 22 21 18 22 22 24 18 19 20 22 20 22 24 24 25 22 23 21 22 30 30 31 38 55 65 69 76 83 79 80 78 78 88 94 100 96 81 59 37 21
15 22 14 11 11 12 17 12 7 13 16 20 14 22 25 19 20 20 23 21 23 25 25 29 26 23 22 18 23 29 31 33 54 69 80 86 78 94 94 85 92 90 94 99 99 97 73 40 27
25 24 21 14 16 14 17 9 7 8 18 8 12 24 28 23 20 21 23 22 24 26 26 28 29 25 23 19 18 20 34 33 34 50 71 86 88 91 96 98 88 81 77 85 96 98 93 60 21
27 30 22 18 18 16 16 11 9 11 12 14 21 23 22 21 21 24 23 23 25 26 26 26 27 26 24 23 16 14 23 37 32 33 56 78 93 97 96 97 90 83 84 79 87 96 97 80 32
30 34 28 24 21 21 19 18 20 12 13 21 26 25 27 24 23 25 24 24 24 26 26 26 27 27 24 23 22 15 13 16 36 38 43 50 66 81 94 91 87 86 88 88 89 99 97 87 45
41 35 31 30 28 24 22 22 20 20 16 23 27 27 30 30 27 26 26 22 24 27 23 26 28 29 27 25 23 16 15 15 16 33 40 43 47 57 71 82 82 92 93 88 89 100 95 85 52
43 39 39 33 34 28 26 27 26 24 16 16 25 23 24 31 32 30 27 22 22 22 24 26 27 28 30 28 23 15 16 16 17 19 32 42 44 50 62 76 83 87 89 91 93 100 98 79 72
52 50 41 41 33 33 30 30 30 30 19 8 13 18 22 26 30 29 26 22 19 20 21 22 25 27 31 30 24 13 14 17 19 20 18 23 37 50 60 71 81 90 90 96 94 100 98 79 72
49 52 48 44 40 37 37 34 31 36 24 15 9 13 16 16 27 23 25 24 19 20 21 21 23 28 32 32 24 16 12 15 16 20 20 19 29 39 72 73 79 82 99 99 100 97 97 85 52
50 49 48 46 47 45 40 41 38 34 29 26 16 10 12 13 20 24 23 21 20 20 21 22 23 27 30 35 27 25 20 14 16 18 18 21 30 46 71 85 88 79 97 100 97 98 91 80 41
47 47 45 42 43 43 43 37 33 38 32 30 27 24 19 9 9 22 22 20 21 21 20 21 23 25 29 37 31 28 28 18 13 15 19 22 27 36 62 88 80 83 93 100 97 97 81 68 42
53 43 45 46 47 42 40 36 34 34 37 36 36 36 32 21 12 12 22 22 21 22 21 21 21 23 28 38 38 32 30 24 13 17 21 31 35 36 56 96 90 92 99 100 97 95 76 49 51
44 45 45 46 43 47 40 39 39 42 41 42 43 42 40 36 30 19 18 22 22 21 22 21 21 23 27 36 37 33 32 27 14 18 33 56 62 67 97 99 100 100 100 100 100 99 63 55 45
43 42 43 41 44 47 43 40 40 42 44 46 46 44 41 40 31 29 22 18 21 21 21 20 21 23 32 35 34 34 33 28 14 20 52 80 80 95 100 99 98 98 99 100 100 92 64 66 48
48 42 42 40 50 52 44 41 40 42 44 44 42 41 41 42 42 36 31 27 19 20 20 20 20 22 32 37 34 32 34 23 15 30 62 86 81 96 98 98 100 100 99 100 100 82 60 48 45
50 43 40 40 40 44 44 42 39 36 37 36 39 44 43 43 36 33 32 31 25 20 20 21 21 23 32 44 38 33 34 18 16 45 65 76 80 100 98 98 99 100 100 100 98 62 52 32 32
42 40 40 42 43 38 49 30 31 34 31 33 45 70 42 24 24 29 31 32 30 22 23 27 22 24 36 45 43 34 36 16 16 46 65 75 87 95 98 99 100 100 100 99 99 99 63 35 29
34 33 41 35 33 37 42 46 27 26 30 43 63 43 36 44 34 15 20 29 31 26 27 27 23 26 34 41 46 38 37 16 17 34 65 73 85 96 99 100 99 99 98 98 95 85 52 58 47
40 40 45 53 51 55 39 36 25 28 47 72 65 52 44 51 55 48 19 20 30 26 28 23 24 28 33 42 48 40 37 17 18 25 61 76 80 90 99 98 100 98 97 93 92 100 96 100 85
58 56 57 59 60 42 41 40 27 55 85 90 54 73 73 48 44 47 41 19 26 27 29 23 26 30 34 38 48 42 36 17 19 20 41 74 80 86 100 100 99 100 99 99 100 100 100 99 100
62 50 41 40 36 30 52 41 39 75 78 92 90 92 91 60 54 47 42 31 26 28 29 24 27 30 30 40 50 46 37 17 20 19 24 61 76 72 97 100 100 100 98 100 100 99 100 100 99
71 63 56 53 67 51 34 41 56 82 71 81 87 97 74 59 48 43 40 39 27 29 28 25 27 30 30 38 54 54 40 18 22 21 21 34 61 70 78 90 100 100 100 99 99 99 100 97 100
67 59 60 59 65 54 37 42 46 64 84 88 90 90 57 69 70 44 42 40 30 31 29 26 26 28 28 36 57 62 42 18 24 22 22 25 37 49 73 88 98 97 99 100 99 99 100 88 96
75 69 65 60 64 49 46 45 89 90 92 93 100 67 62 63 64 57 49 41 38 39 33 26 25 26 29 38 58 65 43 17 25 24 23 26 30 37 52 68 88 88 86 96 99 96 100 99 98
54 53 58 49 68 70 68 52 92 76 83 96 98 98 84 68 66 71 65 50 47 45 38 28 27 26 31 46 64 67 47 17 24 28 26 26 32 35 43 55 66 88 98 96 98 92 89 98 87
Wind_Speed
20 19 17 15 7 9 15 11 12 8 8 14 17 16 12 9 7 4 7 9 9 4 5 9 7 6 8 9 11 11 13 15 14 14 14 13 12 13 13 12 11 10 10 9 9 10 10 10 11
20 19 17 15 12 19 18 14 10 11 11 14 16 19 14 9 11 8 8 9 8 5 6 7 7 6 10 11 11 9 11 14 14 15 16 16 14 14 15 14 14 13 11 11 11 11 11 11 12
20 20 15 12 19 27 18 12 11 14 19 16 12 18 14 11 11 7 8 8 8 6 9 7 8 9 13 12 10 7 10 13 14 15 15 15 16 16 17 18 18 18 16 15 13 12 11 12 13
20 21 24 21 23 17 13 12 13 12 17 22 19 11 19 17 13 8 8 8 8 8 10 9 7 12 14 12 9 7 9 12 14 15 15 18 19 19 18 18 18 18 20 18 16 13 12 12 14
20 19 21 23 28 24 16 10 16 13 12 9 22 17 16 16 15 10 9 8 8 9 9 7 10 12 12 11 8 6 9 11 14 17 17 17 18 19 20 20 20 20 18 24 17 14 12 13 15
21 21 23 30 26 23 24 21 21 20 15 14 19 24 20 22 16 14 11 9 8 6 6 7 10 10 12 9 5 4 8 12 16 17 19 19 19 20 21 24 24 21 22 23 22 16 11 14 14
26 22 30 27 26 23 20 21 26 22 20 16 23 23 20 23 18 17 13 9 8 6 7 9 11 11 11 8 7 6 7 10 15 17 20 21 22 21 22 24 27 24 29 32 17 16 22 17 16
28 25 28 28 28 28 20 21 22 18 16 27 23 19 19 28 23 19 13 10 9 9 9 10 13 11 10 9 7 8 7 9 12 16 19 21 22 23 21 33 19 20 11 22 29 17 29 17 18
29 28 32 30 24 21 21 14 14 21 22 21 21 22 26 26 25 20 13 11 10 10 11 11 12 11 10 11 8 8 6 7 13 17 18 20 22 22 23 19 20 20 17 21 25 26 25 19 18
37 35 35 26 26 19 15 20 14 16 17 21 18 23 23 26 26 23 16 12 11 12 13 13 12 11 10 10 9 8 6 7 11 16 19 20 22 23 23 21 22 21 21 22 23 22 27 24 22
34 43 27 27 27 25 24 23 21 20 21 22 17 20 24 23 26 25 20 17 14 15 14 14 13 11 12 11 9 9 10 8 11 15 16 20 23 24 24 23 23 24 23 22 21 26 29 25 22
37 31 32 29 26 29 32 24 25 25 26 25 29 26 23 27 30 27 22 19 16 14 15 16 15 14 13 13 10 10 12 11 12 14 16 20 23 25 26 26 24 25 24 21 19 24 33 25 22
36 33 27 30 33 30 31 32 27 27 26 25 34 34 30 27 30 28 27 25 21 16 11 12 16 15 15 14 12 12 13 14 13 16 16 19 22 24 27 27 27 26 24 22 12 30 29 27 25
22 29 32 29 30 29 32 33 31 27 24 23 31 39 36 30 32 28 31 27 23 17 15 13 15 16 16 15 13 11 12 14 15 17 17 19 22 26 30 30 29 27 25 21 17 27 29 27 26
28 29 23 24 24 28 31 35 36 32 28 27 28 32 35 33 33 32 29 30 26 23 21 18 18 18 17 16 15 12 12 14 14 18 19 21 24 27 31 29 31 28 25 22 19 39 32 29 26
22 25 30 26 28 30 25 37 18 15 17 24 28 27 29 30 33 35 33 32 29 27 25 23 21 20 19 17 17 14 14 15 15 18 21 23 25 29 30 31 31 30 24 25 22 46 34 30 28
22 27 23 22 21 20 30 23 20 23 21 19 20 19 19 22 30 34 37 36 36 30 29 26 24 21 20 19 19 16 16 16 17 20 23 22 23 27 32 35 33 35 35 31 25 42 33 30 31
26 21 24 18 14 19 25 25 21 14 12 14 14 16 19 21 24 27 36 38 39 38 32 27 28 22 21 21 20 18 17 17 17 21 22 20 18 26 33 34 35 41 30 36 33 34 35 32 32
25 21 20 16 16 19 22 24 23 21 21 22 23 24 26 28 28 28 31 39 44 40 39 33 31 25 21 19 19 18 17 18 17 21 18 15 19 25 30 30 31 34 28 39 35 44 39 36 35
26 26 26 20 17 18 22 26 26 25 26 26 26 26 27 28 27 30 31 35 40 42 41 36 33 27 21 18 18 19 18 17 17 20 15 15 19 19 20 27 27 41 33 37 39 41 38 38 36
27 28 24 21 16 19 21 29 28 25 23 23 23 21 25 29 36 37 36 34 38 40 37 34 34 27 23 18 18 18 17 15 15 16 13 12 16 15 19 18 26 31 30 37 37 37 38 36 36
27 23 18 17 15 19 8 7 6 12 13 13 9 11 19 26 31 37 39 39 35 38 37 34 34 31 28 23 19 16 16 15 14 16 14 11 12 13 16 21 26 27 36 36 33 34 33 31 31
27 17 17 17 18 18 18 10 7 7 6 8 7 12 15 17 23 31 37 40 37 39 37 36 32 34 32 28 20 17 15 15 14 17 14 11 14 19 15 23 31 34 37 35 34 34 34 31 32
12 15 12 11 11 11 19 15 7 7 6 7 6 11 14 16 15 16 30 38 41 41 38 38 33 34 34 30 22 17 15 15 11 15 13 12 13 18 24 29 26 32 34 35 33 32 33 37 39
17 22 9 9 8 8 8 9 9 6 3 7 15 18 21 21 19 15 20 33 39 40 37 38 36 34 34 31 24 18 16 15 9 14 13 13 16 16 31 30 24 37 36 35 33 29 27 33 31
25 25 8 8 6 6 9 7 6 3 3 8 13 15 21 28 23 19 17 28 37 40 38 37 37 33 32 31 25 19 18 16 9 13 13 13 14 13 25 28 24 28 30 21 26 25 22 21 20
21 22 11 1 2 3 8 5 5 3 8 12 15 19 22 23 20 17 16 23 34 39 37 38 40 36 31 31 27 20 18 17 11 12 13 14 14 14 23 28 24 36 31 26 24 22 25 18 24
18 20 10 7 5 6 6 2 5 5 9 16 22 23 25 25 22 16 14 18 29 37 40 39 39 36 34 32 30 22 20 18 15 11 13 14 14 15 19 26 24 29 23 31 23 19 27 22 22
17 15 7 8 2 1 1 6 2 5 14 19 22 29 30 24 25 11 13 18 28 36 40 39 40 36 36 34 32 25 23 21 18 14 15 13 13 13 17 22 29 26 22 25 26 26 23 29 20
14 12 11 7 4 2 1 1 2 12 15 21 23 26 24 23 25 12 11 18 29 34 36 39 41 39 37 37 34 28 25 23 22 18 17 15 13 12 12 12 16 26 25 29 27 25 24 23 21
Wind_Direction
253 253 258 265 258 240 247 244 220 221 223 218 208 200 205 224 209 261 297 329 358 346 304 283 294 297 303 289 290 278 254 241 231 227 223 227 234 238 239 236 231 226 216 208 206 207 207 208 208
251 251 251 249 243 242 250 236 224 219 220 213 210 206 214 232 232 260 306 343 350 337 303 284 302 313 323 314 300 275 249 238 230 222 220 220 229 234 234 237 239 231 226 216 212 209 211 215 205
243 244 238 240 245 243 256 249 236 219 223 209 204 207 221 231 238 268 310 335 336 319 318 311 313 318 325 326 304 270 240 233 229 226 222 220 224 224 226 237 242 238 227 219 213 211 210 212 204
237 238 237 236 239 246 244 248 207 217 230 226 217 227 231 232 243 270 300 322 318 291 310 313 311 318 320 324 314 276 231 218 224 220 213 213 212 216 221 222 220 232 222 212 208 209 215 208 203
235 227 233 242 244 242 231 218 202 206 210 224 218 223 231 234 244 257 283 304 295 289 299 305 312 323 328 328 316 281 241 215 219 222 221 223 227 230 233 235 232 225 221 204 206 204 208 202 200
231 225 237 239 247 243 246 235 217 215 223 243 232 227 238 237 245 256 269 282 282 285 306 310 324 328 338 341 337 295 244 229 223 223 220 224 233 240 243 241 234 233 236 210 196 199 208 206 208
233 237 242 248 249 243 246 241 235 236 250 253 236 236 239 240 242 250 257 268 262 273 303 307 320 322 336 343 353 320 261 240 228 226 225 226 232 237 251 254 246 250 266 246 253 239 216 214 214
235 236 246 243 243 249 250 253 248 230 236 242 243 241 236 240 234 241 245 251 261 274 297 303 307 320 329 338 332 321 271 246 239 234 231 231 234 236 246 249 269 262 254 249 251 249 210 213 219
234 233 239 239 243 247 247 255 251 231 227 239 239 233 227 226 224 225 232 240 259 276 283 293 300 311 319 333 324 314 278 260 239 236 232 233 236 242 250 254 253 254 255 251 248 255 215 212 214
228 234 237 239 237 245 240 233 238 239 236 229 231 227 218 214 221 219 218 235 249 259 271 276 285 301 307 316 311 293 285 264 248 243 237 235 238 241 241 241 242 248 247 254 254 232 192 203 207
234 236 242 240 237 253 249 250 244 244 236 229 231 234 229 220 220 221 227 236 235 245 260 262 270 290 309 310 302 287 277 263 255 246 240 240 242 243 245 244 242 241 243 251 239 228 196 194 204
238 240 240 241 246 254 254 254 252 245 243 226 223 232 233 227 231 232 233 236 231 242 255 252 263 277 297 312 300 285 275 259 257 251 246 245 246 246 244 244 238 238 243 239 232 217 196 194 201
236 238 246 245 249 252 256 252 252 252 252 231 235 233 231 231 231 235 236 241 240 237 240 252 255 269 281 302 301 289 270 266 255 255 254 252 251 249 248 243 239 240 241 230 244 207 188 196 201
239 247 242 247 251 253 256 256 258 256 253 238 236 236 236 233 228 230 236 247 240 235 241 249 249 260 271 289 296 293 281 266 262 261 260 255 254 251 246 241 238 238 233 226 228 218 193 196 203
235 246 246 241 242 248 256 257 252 259 262 250 240 240 242 239 229 233 236 241 233 238 240 242 249 255 268 278 287 288 286 274 264 263 260 258 252 247 243 238 232 233 243 211 231 191 195 197 202
231 242 246 246 244 240 249 256 251 239 238 248 247 246 245 244 235 229 235 239 243 242 249 246 246 253 261 269 275 279 284 283 278 269 267 260 254 245 238 231 231 231 234 210 229 184 190 198 200
228 234 236 242 239 237 229 253 254 244 242 249 245 249 247 243 240 235 234 239 244 245 249 254 250 252 255 260 268 272 281 284 281 278 276 267 258 239 232 228 230 233 231 218 204 185 193 198 199
222 231 237 233 234 232 237 247 240 245 240 244 242 245 248 246 244 240 237 238 242 248 250 250 252 250 250 255 259 266 277 284 285 285 278 262 250 240 229 234 233 225 221 214 213 218 192 200 203
235 234 241 241 235 237 246 250 246 251 258 252 257 256 258 259 257 248 239 239 241 245 252 253 249 247 248 250 254 262 274 282 288 289 271 245 253 256 229 227 228 222 221 216 213 183 192 199 206
222 240 249 249 235 247 258 259 258 255 257 257 260 262 262 263 258 250 243 238 240 244 247 250 245 240 237 241 248 257 267 279 287 287 263 247 265 248 238 232 230 222 206 212 195 181 192 200 203
231 232 236 241 249 258 265 273 268 265 259 256 253 254 251 253 251 247 243 239 236 240 244 245 239 235 226 235 245 254 264 273 287 277 257 264 262 244 230 214 209 182 196 196 188 185 199 203 205
224 227 231 233 244 253 230 275 245 257 254 236 227 255 259 260 256 248 243 240 237 236 236 240 232 224 224 231 244 251 260 269 281 265 248 257 256 200 229 203 185 202 197 188 188 201 207 208 212
229 222 227 233 239 257 248 253 251 182 205 201 280 267 275 261 259 250 246 239 234 234 229 231 228 217 222 229 238 247 254 260 278 268 244 238 234 214 197 189 176 183 182 190 203 203 208 207 216
216 203 199 201 217 243 241 225 210 180 207 276 287 307 300 269 254 253 240 236 230 231 224 223 219 215 219 225 233 244 249 253 272 269 246 235 240 232 209 195 195 193 192 193 199 206 213 214 212
178 174 167 193 208 236 170 197 232 231 261 308 316 317 314 302 273 248 239 235 225 225 222 219 214 213 217 221 226 239 246 247 256 264 249 230 239 247 213 200 217 205 202 206 214 217 226 235 245
189 186 199 199 196 170 182 224 164 216 315 327 323 319 309 300 291 273 247 231 222 217 219 215 212 215 217 219 221 232 242 243 238 255 247 235 230 238 201 211 219 214 203 224 216 231 232 223 218
185 201 217 204 60 238 193 188 188 102 331 326 324 323 318 318 298 272 255 234 220 212 216 211 210 216 218 217 218 229 238 238 225 243 238 231 221 222 209 210 215 207 230 218 228 224 214 210 227
199 194 193 204 207 222 158 194 92 335 338 333 332 329 327 328 320 266 245 228 220 209 213 211 209 220 221 213 215 225 233 229 224 228 233 228 217 213 212 212 217 214 228 215 221 212 225 209 212
165 183 182 189 250 273 68 109 44 15 342 332 330 317 325 329 331 261 238 219 212 212 211 211 211 216 214 207 211 221 228 223 222 211 227 215 215 209 204 212 211 203 202 209 225 222 231 228 236
202 192 191 211 172 120 5 84 127 354 340 330 333 313 321 330 329 289 250 214 212 213 209 207 211 213 209 202 207 214 220 221 219 210 217 215 208 209 203 200 205 203 216 216 221 229 233 227 228